Simultaneous Nadir Overpasses (SNOs) Predictions

Prediction of SNOs between LANDSAT-8 and NOAA-19 Satellite Orbit:

Table of predicted SNOs for the next 14.0 days since TLE Epoch: 7/2/2016
Index Date (LANDSAT-8) Time (LANDSAT-8) Lat,Lon (LANDSAT-8) SZA (LANDSAT-8 ) Date (NOAA-19) Time (NOAA-19) Lat,Lon (NOAA-19) SZA (NOAA-19 ) Distance(km) Time Diff (sec)
1 07/03/2016 13:01:14 75.35, -8.89 52.45 07/03/2016 13:00:08 75.37, -11.91 52.41 84.86 66
2 07/03/2016 13:50:53 -74.78, 157.21 128.16 07/03/2016 13:50:50 -74.78, 157.18 128.16 1.22 3
3 07/05/2016 18:35:09 -74.91, 86.48 127.82 07/05/2016 18:33:56 -74.97, 85.91 127.77 17.93 73
4 07/05/2016 19:24:37 74.78,-106.20 52.06 07/05/2016 19:24:59 74.77,-106.28 52.05 2.91 22
5 07/08/2016 00:08:55 74.81,-177.20 52.32 07/08/2016 00:08:02 74.83,-177.15 52.34 2.18 53
6 07/08/2016 00:58:24 -74.74, -9.74 127.75 07/08/2016 00:58:55 -74.74, -9.63 127.75 3.27 31
7 07/10/2016 05:42:41 -74.82, -80.62 127.40 07/10/2016 05:41:59 -74.84, -80.63 127.38 2.37 42
8 07/10/2016 06:32:08 74.74, 86.82 52.52 07/10/2016 06:33:04 74.75, 86.87 52.53 1.56 56
9 07/12/2016 11:16:25 74.81, 15.93 52.90 07/12/2016 11:16:07 74.81, 15.97 52.90 1.14 18
10 07/12/2016 12:05:54 -74.75,-176.60 127.17 07/12/2016 12:07:01 -74.76,-176.60 127.16 0.87 67
11 07/14/2016 16:50:11 -74.82, 112.51 126.77 07/14/2016 16:50:04 -74.81, 112.53 126.77 0.68 7




NCC Satellite Simultaneous Nadir Overpasses (SNOs) Prediction Service
